[[{"header":{"parameterUnit":"m.s-1","parameterCategory":1,"la1":30.2991,"la2":30.254,"lo1":-89.0895,"lo2":-89.0444,"dy":0.0017,"dx":0.0017,"nx":28,"ny":28,"refTime":"2023-10-25T09:00:00:Z","depth":0,"parameterNumber":2,"parameterNumberName":"U-component_of_WINDS"},"data":[0,0,0,0,0,0,0,0,0,0,0,0,0,0,0,0,0,0,0,0,0,0,0,0,0,0,0,0,0,0,0,0,0,0,0,0,0,0,0,0,0,0,0,0,0,0,0,0,0,0,0,0,0,0,0,0,0,0,-4.8286,-4.8287,0,-4.8366,-4.8367,-4.8368,-4.8285,-4.8282,-4.8278,-4.8275,-4.8356,-4.8361,-4.8366,0,0,0,0,0,0,0,0,0,0,0,0,0,-4.8061,-4.8065,-4.8286,-4.8287,-4.8288,-4.8366,-4.8367,-4.8368,-4.8285,-4.8281,-4.8277,-4.8274,-4.8354,-4.8361,-4.8367,0,0,0,0,0,0,0,0,0,0,0,0,0,-4.8152,-4.8067,-4.8286,-4.8256,-4.8254,-4.8366,-4.8367,-4.8369,-4.8286,-4.8281,-4.8276,-4.8272,-4.8352,-4.836,-4.8368,-4.8512,0,0,-4.8391,-4.8395,0,0,0,0,0,0,0,0,-4.8147,-4.816,-4.8259,-4.8258,-4.8256,-4.8311,-4.8317,-4.8417,-4.8287,-4.8274,-4.8275,-4.827,-4.8345,-4.8353,-4.8379,-4.8516,-4.852,-4.8392,-4.8397,-4.84,-4.8402,0,0,0,0,0,0,0,-4.814,-4.8156,-4.8317,-4.8261,-4.8259,-4.8239,-4.8246,-4.8336,-4.8335,-4.8275,-4.8269,-4.828,-4.8343,-4.8371,-4.838,-4.8521,-4.8392,-4.8399,-4.8403,-4.8406,-4.8783,-4.8788,0,0,0,0,0,0,-4.8137,-4.8151,-4.8315,-4.832,-4.8188,-4.8247,-4.8255,-4.8298,-4.8334,-4.8335,-4.8284,-4.8275,-4.836,-4.8371,-4.8382,-4.8554,-4.84,-4.8407,-4.8412,-4.8778,-4.8784,-4.879,0,0,0,0,0,0,-4.8133,-4.8153,-4.8312,-4.8234,-4.8253,-4.8256,-4.8305,-4.8302,-4.833,-4.8341,-4.8341,-4.8313,-4.8357,-4.8371,-4.8481,-4.8556,-4.8411,-4.8418,-4.8772,-4.878,-4.8787,-4.8899,0,0,0,0,0,0,-4.8127,-4.8152,-4.8206,-4.8236,-4.8257,-4.8409,-4.8309,-4.8307,-4.8344,-4.8334,-4.8368,-4.8369,-4.8354,-4.847,-4.8489,-4.8564,-4.8424,-4.8765,-4.8775,-4.8785,-4.8888,-4.891,-4.8928,0,0,0,0,0,-4.8119,-4.8234,-4.8209,-4.8229,-4.8325,-4.8413,-4.8425,-4.8407,-4.835,-4.8405,-4.8413,-4.8368,-4.8546,-4.8482,-4.8502,-4.8581,-4.876,-4.8772,-4.8784,-4.8879,-4.8905,-4.8927,0,0,0,0,0,0,-4.821,-4.8237,-4.821,-4.8338,-4.8374,-4.8399,-4.8467,-4.8435,-4.8487,-4.8475,-4.845,-4.8459,-4.8575,-4.8589,-4.8518,-4.8724,-4.8644,-4.866,-4.8709,-4.8734,-4.8753,-4.8746,-4.843,0,0,0,0,0,-4.8246,-4.8315,-4.8335,-4.8445,-4.8465,-4.8464,-4.8501,-4.8485,-4.8521,-4.8535,-4.8551,-4.8588,-4.8652,-4.8694,-4.8754,-4.8892,-4.8898,-4.8956,-4.8976,-4.8992,-4.9006,-4.9081,-4.9106,-4.883,-4.883,-4.8829,0,0,-4.8318,-4.8342,-4.8386,-4.8464,-4.849,-4.8563,-4.8477,-4.8557,-4.861,-4.8547,-4.8651,-4.8665,-4.8705,-4.883,-4.8885,-4.8845,-4.9085,-4.9008,-4.902,-4.9025,-4.9096,-4.9122,-4.9145,-4.8838,-4.8836,-4.8835,0,0,-4.8487,-4.8513,-4.8608,-4.8637,-4.8679,-4.8678,-4.8701,-4.8733,-4.8739,-4.8844,-4.8799,-4.8863,-4.8974,-4.9004,-4.9034,-4.9221,-4.9181,-4.9242,-4.9343,-4.9416,-4.9438,-4.9457,-4.9522,-4.9546,-4.9256,-4.9256,-4.9257,0,-4.8571,-4.8679,-4.866,-4.8744,-4.878,-4.873,-4.8826,-4.8855,-4.8914,-4.894,-4.8896,-4.9036,-4.9059,-4.919,-4.9236,-4.9263,-4.9288,-4.9235,-4.9437,-4.9456,-4.9473,-4.9535,-4.956,-4.9263,-4.9262,-4.9262,-4.9261,0,-4.878,-4.8856,-4.8928,-4.8988,-4.9033,-4.9123,-4.9118,-4.9166,-4.9147,-4.9151,-4.926,-4.9287,-4.9352,-4.9383,-4.9364,-4.9513,-4.9487,-4.944,-4.9358,-4.9507,-4.9564,-4.9588,-4.9273,-4.9271,-4.9268,-4.9267,0,0,-4.9003,-4.9055,-4.9082,-4.9109,-4.9154,-4.9212,-4.9301,-4.9366,-4.9407,-4.9452,-4.9525,-4.9623,-4.9581,-4.9615,-4.9601,-4.9666,-4.9811,-4.9611,-4.9612,-4.9645,-4.9976,-5.0008,-5.0036,-4.9788,-4.9792,-4.9796,-4.9972,0,-4.9171,-4.9325,-4.9313,-4.9459,-4.9529,-4.9485,-4.9562,-4.9599,-4.9607,-4.9668,-4.9677,-4.9746,-4.9686,-4.9707,-4.977,-4.978,-4.9877,-4.9768,-4.9854,-4.9858,-4.9842,-5.0066,-5.01,-5.0265,-4.9995,-4.9999,-5.0001,0,-4.9386,-4.944,-4.9593,-4.9629,-4.9658,-4.9728,-4.9788,-4.9847,-4.9889,-4.989,-4.9932,-4.9908,-4.9998,-4.9918,-5.0043,-4.9969,-5.0005,-5.0017,-5.0023,-5.0026,-4.9935,-5.0074,-5.0317,-5.0341,-5.0037,-5.0034,-5.0032,0,-4.9531,-4.9642,-4.9747,-4.9773,-4.9819,-4.9869,-4.9891,-4.9928,-4.9968,-5.0022,-5.0048,-5.0111,-5.0145,-5.0195,-5.0189,-5.0131,-5.0316,-5.0235,-5.0319,-5.0319,-5.0355,-5.0352,-5.0605,-5.0385,-5.0384,-5.0384,-5.0383,0,-4.9718,-4.9812,-4.9813,-4.9878,-4.9983,-4.9971,-5.0076,-5.0092,-5.0127,-5.0194,-5.0161,-5.0225,-5.0215,-5.028,-5.0277,-5.038,-5.0396,-5.04,-5.0397,-5.0401,-5.04,-5.042,-5.0407,-5.039,-5.0389,-5.0388,-5.0386,0,-4.9894,-4.9899,-5.0011,-5.0048,-5.0059,-5.0135,-5.0166,-5.0228,-5.0236,-5.0322,-5.0342,-5.0353,-5.0428,-5.0429,-5.0514,-5.0512,-5.0638,-5.0624,-5.0624,-5.062,-5.0703,-5.0694,-5.0974,-5.101,-5.077,-5.0772,-5.0774,0,-5.001,-5.0083,-5.0128,-5.0172,-5.0197,-5.0267,-5.031,-5.0302,-5.0348,-5.0403,-5.0459,-5.0531,-5.0588,-5.071,-5.0726,-5.0792,-5.0778,-5.0872,-5.0787,-5.0789,-5.0776,-5.0771,-5.0778,-5.0886,-5.0889,-5.0891,-5.0893,0,-5.0217,-5.0217,-5.0279,-5.0344,-5.0396,-5.0446,-5.0492,-5.053,-5.0528,-5.0582,-5.0658,-5.0703,-5.0792,-5.0864,-5.0929,-5.0952,-5.0922,-5.0921,-5.0943,-5.0945,-5.0941,-5.0943,-5.0666,-5.0913,-5.0911,-5.0909,-5.0908,-5.0908,-5.0365,-5.0427,-5.047,-5.0541,-5.0577,-5.0622,-5.0682,-5.0699,-5.0764,-5.0835,-5.0828,-5.0914,-5.0958,-5.1042,-5.1071,-5.1138,-5.1105,-5.1138,-5.1146,-5.1153,-5.1161,-5.0935,-5.115,-5.115,-5.1149,-5.1149,-5.1148,0,-5.0567,-5.0593,-5.066,-5.0727,-5.0784,-5.0755,-5.0807,-5.0856,-5.0932,-5.0975,-5.1033,-5.1123,-5.1195,-5.1219,-5.1288,-5.1338,-5.1326,-5.1356,-5.135,-5.1356,-5.1187,-5.116,-5.1364,-5.1364,-5.1364,-5.1364,-5.1364,-5.1364,-5.0678,-5.0782,-5.0789,-5.0911,-5.0937,-5.1022,-5.1054,-5.1096,-5.1131,-5.1233,-5.1292,-5.1309,-5.1345,-5.1418,-5.1482,-5.1488,-5.1514,-5.1549,-5.1548,-5.1389,-5.1368,-5.1347,-5.1321,-5.1555,-5.1556,-5.1711,-5.1712,-5.1713]},{"header":{"parameterUnit":"m.s-1","parameterCategory":1,"la1":30.2991,"la2":30.254,"lo1":-89.0895,"lo2":-89.0444,"dy":0.0017,"dx":0.0017,"nx":28,"ny":28,"refTime":"2023-10-25T09:00:00:Z","depth":0,"parameterNumber":3,"parameterNumberName":"V-component_of_WINDS"},"data":[0,0,0,0,0,0,0,0,0,0,0,0,0,0,0,0,0,0,0,0,0,0,0,0,0,0,0,0,0,0,0,0,0,0,0,0,0,0,0,0,0,0,0,0,0,0,0,0,0,0,0,0,0,0,0,0,0,0,2.4362,2.4361,0,2.4316,2.4315,2.4315,2.4195,2.4193,2.419,2.4188,2.4137,2.4138,2.4139,0,0,0,0,0,0,0,0,0,0,0,0,0,2.4346,2.4347,2.4362,2.4361,2.4361,2.4316,2.4315,2.4315,2.4196,2.4193,2.419,2.4187,2.4137,2.4138,2.4139,0,0,0,0,0,0,0,0,0,0,0,0,0,2.4332,2.4348,2.4362,2.4296,2.429,2.4316,2.4315,2.4314,2.4196,2.4192,2.4189,2.4185,2.4136,2.4138,2.4139,2.4224,0,0,2.4144,2.4144,0,0,0,0,0,0,0,0,2.4333,2.4333,2.4306,2.4301,2.4294,2.4257,2.4291,2.4284,2.4197,2.4232,2.4188,2.4183,2.418,2.4177,2.4177,2.4222,2.422,2.4144,2.4145,2.4145,2.4146,0,0,0,0,0,0,0,2.4334,2.4334,2.4343,2.4306,2.4298,2.4269,2.4262,2.4289,2.4227,2.4228,2.422,2.4216,2.4175,2.4176,2.4175,2.4219,2.4144,2.4145,2.4146,2.4147,2.4335,2.4339,0,0,0,0,0,0,2.4345,2.4336,2.4345,2.4342,2.4305,2.4272,2.4265,2.4273,2.4227,2.4216,2.4219,2.4211,2.4175,2.4173,2.4173,2.4271,2.4145,2.4147,2.4148,2.4331,2.4336,2.434,0,0,0,0,0,0,2.4345,2.4347,2.4347,2.4337,2.4334,2.4276,2.4286,2.4274,2.4274,2.422,2.4208,2.4231,2.4172,2.4171,2.4213,2.4267,2.4147,2.4149,2.4326,2.4332,2.4338,2.4467,0,0,0,0,0,0,2.4345,2.4348,2.4379,2.4338,2.4335,2.4388,2.4289,2.4276,2.4277,2.4266,2.4228,2.4218,2.4169,2.4212,2.4215,2.4267,2.415,2.4321,2.4329,2.4336,2.4458,2.4477,2.4493,0,0,0,0,0,2.4345,2.4415,2.4381,2.4383,2.4373,2.4392,2.439,2.4333,2.4282,2.4313,2.428,2.4219,2.4262,2.4217,2.422,2.4273,2.4317,2.4327,2.4336,2.445,2.4473,2.4493,0,0,0,0,0,0,2.4461,2.4408,2.437,2.4429,2.4417,2.4371,2.4408,2.4359,2.4359,2.4348,2.4277,2.4269,2.4323,2.4302,2.4254,2.4355,2.428,2.429,2.4366,2.4387,2.4405,2.4408,2.4151,0,0,0,0,0,2.4494,2.4514,2.4467,2.4524,2.452,2.4466,2.4472,2.443,2.4413,2.4406,2.4375,2.436,2.437,2.4378,2.4384,2.4456,2.4446,2.4494,2.4512,2.4527,2.4536,2.4574,2.4595,2.4371,2.4371,2.437,0,0,2.4561,2.4535,2.4551,2.4547,2.4531,2.4554,2.4462,2.4488,2.4504,2.4409,2.4448,2.4427,2.4405,2.4464,2.4487,2.4448,2.4597,2.4539,2.4551,2.4551,2.4586,2.4607,2.4626,2.4377,2.4376,2.4375,0,0,2.4694,2.4677,2.4724,2.4712,2.4692,2.4657,2.4669,2.4633,2.4615,2.4654,2.4584,2.4603,2.4621,2.461,2.4606,2.4744,2.4688,2.4748,2.4839,2.4878,2.4895,2.4911,2.496,2.4978,2.4757,2.4758,2.4758,0,2.4779,2.4811,2.4753,2.4786,2.4787,2.4707,2.4754,2.4745,2.4727,2.473,2.4687,2.4712,2.4691,2.4747,2.4781,2.4781,2.4793,2.475,2.4898,2.4913,2.4926,2.4972,2.4991,2.4765,2.4764,2.4763,2.4763,0,2.4917,2.4941,2.4981,2.4969,2.4975,2.5015,2.4964,2.4977,2.4937,2.4907,2.4949,2.4924,2.4925,2.4935,2.4895,2.4987,2.4963,2.4911,2.4833,2.4956,2.4998,2.5015,2.4775,2.4773,2.4771,2.4769,0,0,2.5116,2.5077,2.5093,2.5088,2.5063,2.508,2.5118,2.5121,2.5134,2.5127,2.5157,2.5178,2.513,2.5127,2.5085,2.512,2.5231,2.5062,2.5061,2.5094,2.5332,2.5371,2.5392,2.5196,2.5199,2.5202,2.5334,0,2.5242,2.5304,2.5257,2.5327,2.535,2.5277,2.531,2.5299,2.5274,2.5289,2.526,2.5276,2.5212,2.521,2.5241,2.5211,2.5278,2.5201,2.5223,2.5224,2.5228,2.5414,2.5454,2.5579,2.535,2.5353,2.5355,0,2.5394,2.5398,2.5472,2.5446,2.5454,2.5484,2.5486,2.5502,2.5489,2.5468,2.5468,2.5419,2.5455,2.5383,2.5432,2.5381,2.5388,2.5375,2.5379,2.5376,2.5295,2.5416,2.5618,2.5636,2.538,2.5378,2.5376,0,2.5532,2.5555,2.5603,2.5601,2.5573,2.5597,2.5586,2.5569,2.5576,2.5578,2.5582,2.5588,2.559,2.5596,2.555,2.5501,2.5606,2.5529,2.5589,2.5591,2.5612,2.5611,2.5817,2.562,2.5619,2.5619,2.5619,0,2.5676,2.5724,2.5665,2.5694,2.5747,2.5694,2.5748,2.5729,2.5716,2.5741,2.5679,2.5704,2.5643,2.5662,2.5626,2.5673,2.5675,2.5659,2.5649,2.5664,2.5666,2.5665,2.5655,2.5624,2.5623,2.5622,2.5621,0,2.5836,2.5799,2.5847,2.5818,2.5813,2.5853,2.5828,2.5854,2.5828,2.5861,2.5865,2.5822,2.5842,2.5798,2.581,2.5787,2.5854,2.583,2.5859,2.5851,2.5914,2.5909,2.6125,2.6151,2.594,2.5942,2.5944,0,2.5929,2.5965,2.5942,2.5956,2.595,2.5971,2.598,2.593,2.5941,2.5933,2.5961,2.5976,2.5984,2.6019,2.5989,2.5999,2.5974,2.605,2.5975,2.599,2.5975,2.5973,2.5976,2.6064,2.6067,2.6069,2.6071,0,2.6098,2.6079,2.6094,2.6104,2.6117,2.6121,2.6122,2.6136,2.6084,2.61,2.6121,2.6128,2.6144,2.6159,2.6164,2.6152,2.6103,2.6096,2.611,2.6124,2.6139,2.6132,2.59,2.6089,2.6088,2.6086,2.6085,2.6084,2.6226,2.6256,2.6247,2.6266,2.6263,2.6266,2.6291,2.627,2.6287,2.6296,2.6267,2.6295,2.6285,2.6287,2.6281,2.6303,2.6268,2.6289,2.6294,2.63,2.631,2.6139,2.6303,2.6303,2.6302,2.6301,2.6301,0,2.6391,2.6383,2.6403,2.6407,2.6424,2.6381,2.6381,2.6397,2.6423,2.6419,2.6432,2.6457,2.6474,2.6448,2.646,2.6483,2.6461,2.6488,2.6484,2.6483,2.634,2.6326,2.6505,2.6505,2.6505,2.6505,2.6505,2.6505,2.6479,2.6528,2.651,2.6558,2.6549,2.6578,2.6582,2.6586,2.6583,2.6615,2.663,2.6615,2.6602,2.6615,2.6629,2.6621,2.6628,2.6662,2.6646,2.6513,2.6492,2.6473,2.646,2.6665,2.6665,2.6787,2.6788,2.6789]}]]